sat.trackr.live / text

‹ back to catalog

STARLINK-36501

NORAD 67327 · 2026-002Y

PAYLOAD ACTIVE UNKNOWN

§ Identity

Operator
Country
US
Launch date
2026-01-04
Launch site
AFETR
Launch vehicle
Mass (kg)
RCS (m²)

Purposes: comms

External: N2YO · Heavens-Above · Gunter

§ Orbital elements

Epoch: 2026-05-24T16:11:57.647328Z

Period
94.27 min
Inclination
42.9991°
Eccentricity
0.0001540
Mean motion
15.27580429 rev/d
Perigee alt
482.0 km
Apogee alt
484.1 km
Semi-major
6,861.2 km
B*
5.1321e-4
RAAN
255.8118°
Arg perigee
56.9590°
Mean anomaly
303.1410°
Rev number
2,270

§ Raw data

STARLINK-365011 67327U 26002Y   26144.67497277  .00013887  00000+0  51321-3 0  99922 67327  42.9991 255.8118 0001540  56.9590 303.1410 15.27580429 22701

JSON: /api/v1/satellites/67327 · /tle

For live sub-satellite position, see the globe view (requires WebGL).

§ Visibility from observer

Set your observer location to see the next 7 days of passes ≥ 10°. The values pass through the URL so the page stays shareable.

No JS? Fill the form by hand. The geolocation button needs JavaScript.